sat.trackr.live / text

‹ back to catalog

STARLINK-36543

NORAD 67515 · 2026-012Y

PAYLOAD ACTIVE UNKNOWN

§ Identity

Operator
Country
US
Launch date
2026-01-18
Launch site
AFETR
Launch vehicle
Mass (kg)
RCS (m²)

Purposes: comms

External: N2YO · Heavens-Above · Gunter

§ Orbital elements

Epoch: 2026-05-24T14:45:22.627008Z

Period
94.27 min
Inclination
43.0019°
Eccentricity
0.0001461
Mean motion
15.27588052 rev/d
Perigee alt
482.0 km
Apogee alt
484.0 km
Semi-major
6,861.2 km
B*
4.2493e-4
RAAN
245.6165°
Arg perigee
266.7047°
Mean anomaly
93.3637°
Rev number
1,937

§ Raw data

STARLINK-365431 67515U 26012Y   26144.61484522  .00011452  00000+0  42493-3 0  99912 67515  43.0019 245.6165 0001461 266.7047  93.3637 15.27588052 19370

JSON: /api/v1/satellites/67515 · /tle

For live sub-satellite position, see the globe view (requires WebGL).

§ Visibility from observer

Set your observer location to see the next 7 days of passes ≥ 10°. The values pass through the URL so the page stays shareable.

No JS? Fill the form by hand. The geolocation button needs JavaScript.